User: anonymous   Login
Location: Corcelles
(46.1547°N, 4.7234°E)
Time: 11:46:19
(UTC+00:00)
Language:

Cosmos 921 Rocket - Orbit

View from above orbital plane
View from above orbital plane
View from above satellite
View from above satellite

Ground track
Ground track

The orbit data is extracted from the following two-line orbital elements,

1 10096U 77055B   20270.79861038 +.00000040 +00000-0 +63615-5 0  9993
2 10096 075.8360 032.1584 0042432 034.8600 325.5356 14.88713981340248
Epoch (UTC): 26 September 2020 19:09:59
Eccentricity: 0.0042432
inclination: 75.8360°
perigee height: 572 km
apogee height: 631 km
right ascension of ascending node: 32.1584°
argument of perigee: 34.8600°
revolutions per day: 14.88713981
mean anomaly at epoch: 325.5356°
orbit number at epoch: 34024

The dashed part of the orbit path shows where the satellite is in the earth's shadow,  

DLR